FFT3311 KMCO-KDEN

Flight info

Callsign FFT3311
Flight time N/A
Altitude 34000
Route RDSOX1 JFRYS PATOY Q116 JAWJA SZW SQS PER GCK KIISS CLASH5
Aircraft A321/M-SDE3FGHIRWY/LB1

Departure

Time 2026-04-21 17:28
Airport Orlando International Airport (KMCO)

Arrival

Time N/A
Airport Denver International Airport (KDEN)
Time Latitude Longitude Altitude Speed Heading
2026-04-21 17:07 28.43589 -81.31575 95 ft 0 kts 114°
2026-04-21 17:20 28.43597 -81.31597 96 ft 5 kts 110°
2026-04-21 17:20 28.43607 -81.31630 96 ft 3 kts 115°
2026-04-21 17:21 28.43615 -81.31639 96 ft 2 kts 196°
2026-04-21 17:21 28.43621 -81.31637 97 ft 0 kts 188°
2026-04-21 17:23 28.43578 -81.31644 97 ft 15 kts 190°
2026-04-21 17:23 28.43509 -81.31714 99 ft 12 kts 258°
2026-04-21 17:23 28.43483 -81.31799 98 ft 11 kts 233°
2026-04-21 17:23 28.43415 -81.31904 100 ft 25 kts 243°
2026-04-21 17:24 28.43348 -81.31997 98 ft 15 kts 187°
2026-04-21 17:24 28.43212 -81.31997 98 ft 21 kts 179°
2026-04-21 17:24 28.43071 -81.31994 98 ft 20 kts 179°
2026-04-21 17:24 28.42940 -81.31992 98 ft 18 kts 180°
2026-04-21 17:25 28.42821 -81.31991 100 ft 16 kts 180°
2026-04-21 17:25 28.42722 -81.31991 102 ft 13 kts 180°
2026-04-21 17:25 28.42585 -81.31990 104 ft 28 kts 179°
2026-04-21 17:25 28.42367 -81.31985 103 ft 32 kts 179°
2026-04-21 17:26 28.42144 -81.31980 101 ft 31 kts 184°
2026-04-21 17:26 28.41934 -81.31984 99 ft 29 kts 179°
2026-04-21 17:26 28.41734 -81.31979 99 ft 28 kts 178°
2026-04-21 17:26 28.41570 -81.31988 99 ft 18 kts 208°
2026-04-21 17:27 28.41544 -81.32074 97 ft 0 kts 268°
2026-04-21 17:27 28.41544 -81.32076 97 ft 2 kts 268°
2026-04-21 17:27 28.41550 -81.32164 97 ft 18 kts 292°
2026-04-21 17:27 28.41673 -81.32197 98 ft 26 kts 360°
2026-04-21 17:28 28.42087 -81.32201 100 ft 91 kts 359°
2026-04-21 17:28 28.42904 -81.32210 100 ft 142 kts 360°
2026-04-21 17:28 28.44028 -81.32221 139 ft 176 kts
2026-04-21 17:28 28.45251 -81.32232 742 ft 176 kts
2026-04-21 17:29 28.46541 -81.32238 971 ft 194 kts
2026-04-21 17:29 28.47962 -81.32241 1136 ft 213 kts
2026-04-21 17:29 28.49493 -81.32247 1328 ft 229 kts
2026-04-21 17:29 28.51109 -81.32267 1980 ft 233 kts
2026-04-21 17:30 28.52736 -81.32426 2671 ft 237 kts 357°
2026-04-21 17:30 28.54384 -81.32676 3389 ft 242 kts 352°
2026-04-21 17:30 28.55984 -81.33383 4073 ft 250 kts 339°
2026-04-21 17:30 28.57563 -81.34217 4770 ft 252 kts 337°
2026-04-21 17:31 28.58957 -81.35481 5423 ft 263 kts 309°
2026-04-21 17:31 28.59723 -81.37433 5836 ft 285 kts 278°
2026-04-21 17:31 28.59754 -81.39728 6365 ft 294 kts 269°
2026-04-21 17:31 28.59712 -81.42061 7069 ft 296 kts 270°
2026-04-21 17:32 28.59687 -81.43613 7534 ft 296 kts 270°
2026-04-21 17:32 28.59647 -81.46774 8418 ft 300 kts 271°
2026-04-21 17:32 28.59514 -81.49133 9144 ft 301 kts 262°
2026-04-21 17:32 28.58912 -81.51435 9824 ft 305 kts 246°
2026-04-21 17:33 28.58014 -81.53634 10312 ft 315 kts 245°
2026-04-21 17:33 28.57064 -81.55975 10437 ft 335 kts 248°
2026-04-21 17:33 28.56085 -81.58415 10597 ft 352 kts 248°
2026-04-21 17:33 28.55062 -81.60978 11075 ft 358 kts 249°
2026-04-21 17:34 28.54027 -81.63567 11664 ft 360 kts 249°
2026-04-21 17:34 28.52983 -81.66169 12229 ft 362 kts 249°
2026-04-21 17:34 28.51935 -81.68785 12794 ft 365 kts 249°
2026-04-21 17:34 28.50878 -81.71417 13384 ft 367 kts 247°
2026-04-21 17:35 28.49813 -81.74071 13972 ft 370 kts 248°
2026-04-21 17:35 28.48741 -81.76738 14502 ft 372 kts 249°
2026-04-21 17:35 28.47661 -81.79421 15032 ft 374 kts 248°
2026-04-21 17:35 28.46574 -81.82116 15566 ft 375 kts 247°
2026-04-21 17:36 28.45486 -81.84809 16090 ft 377 kts 249°
2026-04-21 17:36 28.44389 -81.87528 16596 ft 379 kts 247°
2026-04-21 17:36 28.43363 -81.90281 17123 ft 378 kts 254°
2026-04-21 17:36 28.42757 -81.93187 17614 ft 377 kts 265°
2026-04-21 17:37 28.42644 -81.96158 18093 ft 377 kts 273°
2026-04-21 17:37 28.42716 -81.99149 18525 ft 381 kts 274°
2026-04-21 17:37 28.42756 -82.01141 18841 ft 381 kts 273°
2026-04-21 17:37 28.42822 -82.05176 19431 ft 382 kts 272°
2026-04-21 17:38 28.42864 -82.08147 19852 ft 383 kts 272°
2026-04-21 17:38 28.42906 -82.11173 20269 ft 384 kts 272°
2026-04-21 17:38 28.42947 -82.14216 20706 ft 385 kts 272°
2026-04-21 17:38 28.42990 -82.17260 21154 ft 385 kts 272°
2026-04-21 17:39 28.43035 -82.20302 21604 ft 385 kts 272°
2026-04-21 17:39 28.43082 -82.23343 22053 ft 386 kts 272°
2026-04-21 17:39 28.43129 -82.26405 22491 ft 386 kts 272°
2026-04-21 17:39 28.43174 -82.29451 22931 ft 387 kts 272°
2026-04-21 17:40 28.43219 -82.32509 23364 ft 387 kts 272°
2026-04-21 17:40 28.43260 -82.35572 23788 ft 388 kts 272°
2026-04-21 17:40 28.43304 -82.38652 24153 ft 389 kts 272°
2026-04-21 17:40 28.43432 -82.41719 24439 ft 389 kts 279°
2026-04-21 17:41 28.44094 -82.44696 24723 ft 390 kts 291°
2026-04-21 17:41 28.45345 -82.47435 24997 ft 392 kts 303°
2026-04-21 17:41 28.47135 -82.49784 25338 ft 395 kts 316°
2026-04-21 17:41 28.49372 -82.51620 25644 ft 400 kts 326°
2026-04-21 17:42 28.51743 -82.53199 25949 ft 401 kts 326°
2026-04-21 17:42 28.54182 -82.54828 26269 ft 401 kts 326°
2026-04-21 17:42 28.56560 -82.56418 26571 ft 402 kts 327°
2026-04-21 17:42 28.58979 -82.58032 26883 ft 403 kts 327°
2026-04-21 17:43 28.61398 -82.59649 27202 ft 404 kts 327°
2026-04-21 17:43 28.63822 -82.61273 27490 ft 405 kts 327°
2026-04-21 17:43 28.66254 -82.62902 27777 ft 406 kts 327°
2026-04-21 17:43 28.68689 -82.64535 28063 ft 407 kts 327°
2026-04-21 17:44 28.71124 -82.66173 28331 ft 407 kts 327°
2026-04-21 17:44 28.73568 -82.67816 28607 ft 408 kts 327°
2026-04-21 17:44 28.76020 -82.69462 28897 ft 409 kts 327°
2026-04-21 17:44 28.78471 -82.71108 29190 ft 409 kts 327°
2026-04-21 17:45 28.80920 -82.72760 29482 ft 409 kts 327°
2026-04-21 17:45 28.83373 -82.74416 29750 ft 410 kts 327°
2026-04-21 17:45 28.85826 -82.76072 30011 ft 411 kts 327°
2026-04-21 17:45 28.88287 -82.77733 30312 ft 410 kts 327°
2026-04-21 17:46 28.90743 -82.79387 30532 ft 411 kts 327°
2026-04-21 17:46 28.93207 -82.81046 30739 ft 412 kts 327°
2026-04-21 17:46 28.95679 -82.82710 31005 ft 411 kts 327°
2026-04-21 17:46 28.98140 -82.84369 31292 ft 410 kts 327°
2026-04-21 17:47 29.00595 -82.86026 31581 ft 409 kts 327°
2026-04-21 17:47 29.03040 -82.87680 31878 ft 408 kts 327°
2026-04-21 17:47 29.05478 -82.89332 32173 ft 407 kts 327°
2026-04-21 17:47 29.07847 -82.91006 32529 ft 403 kts 324°
2026-04-21 17:48 29.09418 -82.92210 32771 ft 401 kts 323°
2026-04-21 17:48 29.12411 -82.94661 33191 ft 398 kts 322°
2026-04-21 17:48 29.14634 -82.96545 33488 ft 397 kts 321°
2026-04-21 17:48 29.16853 -82.98427 33774 ft 396 kts 321°
2026-04-21 17:49 29.19067 -83.00289 34061 ft 395 kts 322°
2026-04-21 17:49 29.21296 -83.02136 34264 ft 395 kts 322°
2026-04-21 17:49 29.25036 -83.05204 34310 ft 402 kts 322°
2026-04-21 17:50 29.29617 -83.08940 34309 ft 405 kts 322°
2026-04-21 17:50 29.34213 -83.12698 34310 ft 405 kts 322°
2026-04-21 17:51 29.38802 -83.16459 34296 ft 405 kts 322°
2026-04-21 17:51 29.43388 -83.20223 34313 ft 406 kts 322°
2026-04-21 17:52 29.47973 -83.24006 34315 ft 406 kts 322°
2026-04-21 17:52 29.52536 -83.27767 34317 ft 406 kts 322°
2026-04-21 17:53 29.57123 -83.31552 34319 ft 406 kts 322°
2026-04-21 17:53 29.61709 -83.35338 34318 ft 406 kts 322°
2026-04-21 17:54 29.66297 -83.39131 34339 ft 406 kts 322°
2026-04-21 17:54 29.70877 -83.42926 34339 ft 405 kts 322°
2026-04-21 17:55 29.75453 -83.46717 34336 ft 405 kts 322°
2026-04-21 17:55 29.80032 -83.50510 34339 ft 405 kts 322°
2026-04-21 17:56 29.84605 -83.54306 34332 ft 405 kts 322°
2026-04-21 17:56 29.89188 -83.58109 34334 ft 406 kts 322°
2026-04-21 17:57 29.93769 -83.61922 34338 ft 406 kts 322°
2026-04-21 17:57 29.98352 -83.65737 34354 ft 406 kts 321°
2026-04-21 17:58 30.02900 -83.69527 34349 ft 405 kts 321°
2026-04-21 17:58 30.07466 -83.73339 34344 ft 405 kts 321°
2026-04-21 17:59 30.12027 -83.77158 34341 ft 405 kts 321°
2026-04-21 17:59 30.16573 -83.81009 34339 ft 404 kts 317°
2026-04-21 18:00 30.20284 -83.85828 34334 ft 402 kts 308°
2026-04-21 18:00 30.23763 -83.90884 34333 ft 402 kts 308°
2026-04-21 18:01 30.27246 -83.95944 34346 ft 402 kts 307°
2026-04-21 18:01 30.30729 -84.01001 34338 ft 402 kts 307°
2026-04-21 18:02 30.34209 -84.06066 34333 ft 402 kts 307°
2026-04-21 18:02 30.37682 -84.11135 34329 ft 402 kts 307°
2026-04-21 18:03 30.41160 -84.16209 34328 ft 402 kts 307°
2026-04-21 18:03 30.44634 -84.21284 34324 ft 402 kts 307°
2026-04-21 18:04 30.48106 -84.26361 34320 ft 402 kts 307°
2026-04-21 18:04 30.51577 -84.31449 34313 ft 402 kts 307°
2026-04-21 18:05 30.55046 -84.36544 34317 ft 403 kts 307°
2026-04-21 18:05 30.58077 -84.41999 34326 ft 402 kts 301°
2026-04-21 18:06 30.60987 -84.47497 34328 ft 403 kts 301°
2026-04-21 18:06 30.63927 -84.53036 34331 ft 403 kts 301°
2026-04-21 18:07 30.66870 -84.58591 34334 ft 403 kts 301°
2026-04-21 18:07 30.69804 -84.64150 34337 ft 403 kts 301°
2026-04-21 18:08 30.72742 -84.69715 34335 ft 403 kts 301°
2026-04-21 18:08 30.75657 -84.75247 34337 ft 403 kts 301°
2026-04-21 18:09 30.78582 -84.80808 34333 ft 403 kts 301°
2026-04-21 18:09 30.81507 -84.86375 34335 ft 403 kts 301°